ONEWEB-0265 (48983 NORAD) Tracking and Keplerian Element Data

This shows tracking and keplerian element data for the satellite.

Feedback or suggestion? Click here.




ElementValue
Catalog48983
NameONEWEB-0265
Epoch Orbit570
Epoch Day211.25001157
Epoch Year2021
RAAN227.197
Inclination87.3971
Eccentricity0.0007782
Argument of Perigee150.3323
Mean Anonmoly286.9041
Mean Motion15.40772875
Decay Rate-0.00038115
L11 48983U 21060S 21211.25001157 -.00038115 00000-0 -93864-3 0 9992
L22 48983 87.3971 227.1970 0007782 150.3323 286.9041 15.40772875 5706

Live tracking and technical data element details for ONEWEB-0265 (NORAD 48983). ONEWEB-0265 can be tracked NOW for your location showing map with azimuth and elevation plus other details from your city location.

Track the satellite on the map from your city or location and see movement details for azimuth, elevation, latitude, longitude, range, height, and movement on the map or in text.







IsCatalogInMostPopularTable: catalog: 48983, numindb: 3
Update: records affected: 1



GetName: 48983 ONEWEB-0265

Hit Count: updated at: Sat, 31 Jul 2021 15:50:27 GMT